User: anonymous   Login
Location: Laterina
(43.5167°N, 11.7167°E)
Time: 19:51:09
(UTC+00:00)
Language:

HJ-1C - Orbit

View from above orbital plane
View from above orbital plane
View from above satellite
View from above satellite

Ground track
Ground track

The orbit data is extracted from the following two-line orbital elements,

1 38997U 12064A   21169.52883788  .00003794  00000-0  83591-4 0  9990
2 38997  97.1175 198.4658 0011071 109.6040  47.5965 15.44482280482243
Epoch (UTC): 18 June 2021 12:41:31
Eccentricity: 0.0011071
inclination: 97.1175°
perigee height: 425 km
apogee height: 440 km
right ascension of ascending node: 198.4658°
argument of perigee: 109.6040°
revolutions per day: 15.44482280
mean anomaly at epoch: 47.5965°
orbit number at epoch: 48224

The dashed part of the orbit path shows where the satellite is in the earth's shadow,  

DLR